Regional Weather Roundup
Issued by NWS

Home | Current Version | Previous Version | Graphics & Text | Print | Product List | Glossary On
Versions: 1 2 3 4 5 6 7 8 9 10 11 12 13 14 15 16 17 18 19 20 21 22 23 24 25 26 27
000
ASUS45 KBOU 281207
RWRCO

WEATHER ROUNDUP FOR COLORADO
NATIONAL WEATHER SERVICE DENVER/BOULDER CO
600 AM MDT THU APR 28 2016

NOTE: "FAIR" INDICATES FEW OR NO CLOUDS BELOW 12000 FEET WITH NO
SIGNIFICANT WEATHER AND/OR OBSTRUCTIONS TO VISIBILITY.

COZ001>005-013-030-031-281300-
...NORTHWEST COLORADO...

CITY           SKY/WX    TMP DP  RH WIND       PRES   REMARKS
CRAIG          FAIR      32  28  85 CALM      29.77F
HAYDEN         FAIR      34  25  69 SE10      29.76F WCI  26
MEEKER         LGT RAIN  37  34  89 CALM      29.73F
MOUNT WERNER   NOT AVBL
STEAMBOAT SPGS FAIR      30  27  88 CALM      29.77F
WALDEN         FAIR      23  21  93 N7        29.86F WCI  15
$$

COZ006>008-011-281300-
...WEST CENTRAL VALLEYS...

CITY           SKY/WX    TMP DP  RH WIND       PRES   REMARKS
GRAND JUNCTION LGT RAIN  44  42  93 N3        29.70S
MONTROSE       CLOUDY    44  38  79 CALM      29.74S
EAGLE          CLOUDY    34  30  86 CALM      29.81F
RIFLE          LGT RAIN  43  36  76 CALM      29.72F
DELTA          NOT AVBL
NUCLA          NOT AVBL
$$

COZ017>023-064>068-281300-
...SOUTHWEST COLORADO...

CITY           SKY/WX    TMP DP  RH WIND       PRES   REMARKS
DURANGO        CLOUDY    42  30  62 E6        29.79S
CORTEZ         CLOUDY    43  38  82 E6        29.74F
PAGOSA SPRINGS CLOUDY    43  25  48 S7        29.85R
TELLURIDE      LGT SNOW  33  33 100 CALM      29.79F
WOLF CREEK PAS NOT AVBL
$$

COZ009-010-012-014-032>034-037-058>063-281300-
...CENTRAL COLORADO...

CITY           SKY/WX    TMP DP  RH WIND       PRES   REMARKS
ASPEN          MOCLDY    32  27  81 CALM      29.76F
BUENA VISTA    LGT SNOW  33  32  96 E6        29.87R WCI  27
COPPER MTN     NOT AVBL
BERTHOUD PASS  MOCLDY    18   9  68 SE21      29.89F WCI   1
COTTONWOOD PAS LGT SNOW  32  30  93 SE17G23   29.87R WCI  21
GUNNISON       CLOUDY    36  30  80 N8        29.80F
KREMMLING      FAIR      28  25  86 CALM      29.84S
LEADVILLE      LGT SNOW  28  28 100 S16       29.83F VSB 1   WCI  16
MONARCH PASS   FOG       23  21  93 E12       30.01S VSB<1/4 WCI  12
SALIDA         CLOUDY    37  32  84 SE16G26   29.93R
SUNLIGHT       FLURRIES  28  28 100 NE6       29.85F WCI  22
WILKERSON PASS LGT SNOW  23  21  93 S10G17    29.93S VSB 3/4 WCI  12
$$

COZ069>075-281300-
...SAN LUIS VALLEY/SANGRE DE CRISTO MOUNTAINS...

CITY           SKY/WX    TMP DP  RH WIND       PRES   REMARKS
ALAMOSA        LGT RAIN  40  35  83 S15       29.84R
LA VETA PASS   LGT SNOW  23  21  93 MISG      29.93R VSB 3/4
SAGUACHE       DRIZZLE   37  34  87 CALM      29.85R
$$

COZ035-036-038>040-281300-
...NORTHERN COLORADO FRONT RANGE...

CITY           SKY/WX    TMP DP  RH WIND       PRES   REMARKS
DENVER INTL AP MOCLDY    35  26  69 E7        29.93S WCI  29
DMNS CITY PARK   N/A     37  27  68 E10       29.93S
AURORA         CLOUDY    34  28  80 E8        29.94R WCI  27
FRONT RANGE AP NOT AVBL
ERIE MUNI ARPT CLOUDY    37  29  72 E5        29.94R
BOULDER MUN AP CLOUDY    36  28  75 NE3       29.93S
CENTENNIAL     MOCLDY    35  27  72 E6        29.92S WCI  30
BROOMFIELD     CLOUDY    36  28  75 E6        29.93S
FORT COLLINS   CLOUDY    36  28  75 SE6       29.94S
LONGMONT       CLOUDY    39  30  72 SE6       29.96S
$$

COZ041-046-047-076>085-087-088-281300-
...PIKES PEAK/PALMER DIVIDE AND SOUTHERN FOOTHILLS...

CITY           SKY/WX    TMP DP  RH WIND       PRES   REMARKS
COLO. SPRINGS  CLOUDY    36  27  69 S8        29.94R
A. F. ACADEMY  CLOUDY    36  28  75 S9        29.91S
SCHRIEVER AFB  NOT AVBL
ELLICOTT       NOT AVBL
FALCON         CLOUDY    32  26  80 CALM      29.94R
FORT CARSON    CLOUDY    37  31  78 S8        29.92S
LIMON          CLOUDY    34  26  72 NE9       29.94S WCI  27
MONUMENT HILL  CLOUDY    30  28  93 SE5       29.93S WCI  25
TRINIDAD       CLOUDY    39  29  67 NE9       29.92R
$$

COZ042>045-048>051-090-091-281300-
...NORTHEAST COLORADO...

CITY           SKY/WX    TMP DP  RH WIND       PRES   REMARKS
GREELEY ARPT   CLOUDY    36  30  80 S5        29.95S
AKRON          CLOUDY    32  28  85 NW3       29.95R
BURLINGTON     CLOUDY    34  30  85 NW6       29.96R WCI  29
WRAY           NOT AVBL
STERLING       MOCLDY    32  30  93 CALM      29.95S
HOLYOKE        NOT AVBL
FORT MORGAN    CLOUDY    33  29  85 N3        29.96S
$$

COZ086-089-092>099-281300-
...SOUTHEAST COLORADO...

CITY           SKY/WX    TMP DP  RH WIND       PRES   REMARKS
PUEBLO         CLOUDY    43  26  51 E14       29.94R
LA JUNTA       CLOUDY    42  30  62 E8        29.95S
LAMAR          MOCLDY    38  32  79 NE5       29.94R
SPRINGFIELD      N/A     38  30  73 NE12      29.93R
$$




USA.gov is the U.S. government's official web portal to all federal, state and local government web resources and services.